Location: Banios
(43.0451°N, 0.2335°E)
Time: 12:32:45
(UTC+00:00)

A-11 Canister half - Pass Details

Date: 16 May 2021
Orbit: 1513 x 1686 km, 47.2° (Epoch: 14 June)

Event Time Altitude Azimuth Distance (km) Brightness Sun altitude
Rises 20:31:45 0° 295° (WNW) 4,667 13.2 -12.1°
Reaches altitude 10° 20:34:57 10° 289° (WNW) 3,693 12.2 -12.5°
Maximum altitude 20:43:28 43° 222° (SW) 2,077 9.7 -13.6°
Enters shadow 20:50:57 15° 159° (SSE) 3,412 10.3 -14.6°
Drops below altitude 10° 20:52:14 10° 156° (SSE) 3,784 - -14.8°
Sets 20:55:34 0° 149° (SSE) 4,791 - -15.2°
